Regional Weather Roundup
Issued by NWS

Home | Current Version | Previous Version | Text Only | Print | Product List | Glossary Off
Versions: 1 2 3 4 5 6 7 8 9 10 11 12 13 14 15 16 17 18 19 20 21 22 23 24 25 26 27 28 29 30 31 32 33 34 35 36 37 38 39 40 41 42 43 44 45 46 47 48 49 50

000
ASUS44 KMEG 201310
RWRTN
TENNESSEE HOURLY STATE WEATHER ROUNDUP
NATIONAL WEATHER SERVICE MEMPHIS TN
700 AM CST SAT DEC 20 2014

TNZ002-004-019-021-049-052-054-088>092-201400-
WEST TENNESSEE

CITY           SKY/WX    TMP DP  RH WIND       PRES   REMARKS
MEMPHIS INTL   CLOUDY    39  32  76 E5        30.27R
NWS MEMPHIS      N/A     38 N/A N/A MISG        N/A
JACKSON        CLOUDY    36  30  79 CALM      30.26R
DYERSBURG      CLOUDY    37  21  52 CALM      30.29R
UNION CITY     CLOUDY    34  28  80 CALM      30.26R
PARIS          CLOUDY    30  27  86 NE5       30.25F WCI  25
HUNTINGDON     CLOUDY    33  27  79 E5        30.26R WCI  28
LEXINGTON      CLOUDY    30  28  93 NE5       30.24R WCI  25
SAVANNAH       CLEAR     28  27  93 CALM      30.25S
$$

TNZ008-025-027-028-033-062-065-066-201400-
NORTH MIDDLE TENNESSEE

CITY           SKY/WX    TMP DP  RH WIND       PRES   REMARKS
NASHVILLE      PTCLDY    30  25  81 N5        30.28R WCI  25
CLARKSVILLE    CLOUDY    33  27  78 NE3       30.27R
SMYRNA         CLEAR     27  25  92 CALM      30.29R
COOKEVILLE     CLEAR     28  27  93 N3        30.21S
CROSSVILLE     CLOUDY    34  29  82 CALM      30.20R
$$

TNZ061-075-076-078-094-096-097-201400-
SOUTH MIDDLE TENNESSEE

CITY           SKY/WX    TMP DP  RH WIND       PRES   REMARKS
FAYETTEVILLE   CLEAR     28  27  93 MISG      30.21F
TULLAHOMA      CLEAR     27  25  93 CALM      30.23R
WINCHESTER     CLEAR     28  28 100 CALM      30.23S
MCMINNVILLE    CLEAR     28  28 100 CALM      30.22S
SHELBYVILLE    CLEAR     27  27 100 CALM      30.25S
$$

TNZ017-018-042-046-047-201400-
NORTHEAST TENNESSEE

CITY           SKY/WX    TMP DP  RH WIND       PRES   REMARKS
TRI CITIES     CLOUDY    35  32  88 CALM      30.19R
ELIZABETHTON   CLOUDY    34  34 100 CALM      30.18S
$$

TNZ012-013-036-069-073-074-201400-
CENTRAL EAST TENNESSEE

CITY           SKY/WX    TMP DP  RH WIND       PRES   REMARKS
KNOXVILLE      CLOUDY    38  32  79 N3        30.20R
OAK RIDGE      CLOUDY    39  31  72 CALM      30.22R
GATLINBURG     CLOUDY    36  34  93 CALM      30.19S
MORRISTOWN     CLOUDY    36  32  87 CALM      30.19S
$$

TNZ083-085-099-201400-
SOUTHEAST TENNESSEE

CITY           SKY/WX    TMP DP  RH WIND       PRES   REMARKS
CHATTANOOGA    CLOUDY    41  34  76 NW5       30.22R
$$

SKY/WX REPORTED AS FAIR MEANS FEW OR NO CLOUDS BELOW
12 THOUSAND FEET.



USA.gov is the U.S. government's official web portal to all federal, state and local government web resources and services.